Location: �terpigny
(49.8910°N, 2.9249°E)
Time: 06:08:18
(UTC+00:00)

Cosmos 1908 - Pass Details

Date: 02 June 2022
Orbit: 505 x 523 km, 82.5° (Epoch: 03 July)

Event Time Altitude Azimuth Distance (km) Brightness Sun altitude
Rises 23:18:06 0° 345° (NNW) 2,622 8.5 -17.6°
Reaches altitude 10° 23:20:16 10° 341° (NNW) 1,732 7.1 -17.6°
Maximum altitude 23:23:57 51° 265° (W) 647 3.6 -17.7°
Enters shadow 23:25:04 37° 214° (SSW) 810 3.8 -17.7°
